Regional Weather Roundup
Issued by NWS

Home | Current Version | Previous Version | Graphics & Text | Print | Product List | Glossary On
Versions: 1 2 3 4 5 6 7 8 9 10 11 12 13 14 15 16 17 18 19 20 21 22 23 24 25 26 27 28 29 30 31 32 33 34 35 36 37 38 39 40 41 42 43 44 45 46 47 48 49 50
000
ASUS43 KDTX 280201
RWRMI
MICHIGAN HOURLY REGIONAL WEATHER ROUNDUP
NATIONAL WEATHER SERVICE DETROIT/PONTIAC MI
1000 PM EDT FRI MAY 27 2016

NOTE: "FAIR" INDICATES FEW OR NO CLOUDS BELOW 12,000 FEET WITH NO
SIGNIFICANT WEATHER AND/OR OBSTRUCTION TO VISIBILITY.

MIZ047>049-052>055-059>063-066>070-074>076-081>083-280300-
SOUTHEAST LOWER MICHIGAN

CITY           SKY/WX    TMP DP  RH WIND       PRES   REMARKS
ADRIAN         MOCLDY    76  63  64 SE8       29.96R
ALMA           CLOUDY    73  65  77 CALM      29.93R
ANN ARBOR      CLOUDY    75  64  68 SE7       29.96R
BAD AXE        PTCLDY    71  64  77 SE5       29.96R
CARO           PTCLDY    74  64  71 CALM      29.94S
DETROIT CITY   MOCLDY    77  63  61 SE5       29.96R
DETROIT        CLOUDY    76  64  66 SE7       29.96R
FLINT          MOCLDY    76  63  64 SE6       29.95R
GROSSE ILE     CLOUDY    72  63  73 E5        29.95S
HILLSDALE      CLEAR     76  56  50 SE5       29.96R
HOWELL         PTCLDY    73  65  76 SE3       29.95S

CITY           SKY/WX    TMP DP  RH WIND       PRES   REMARKS
JACKSON        PTCLDY    75  64  68 SE6       29.94S
LAMBERTVILLE   CLOUDY    73  64  73 E3        29.96S
LANSING        CLOUDY    78  62  57 SE7       29.93S
LAPEER         FAIR      74  62  67 SE3       29.97R
MASON          CLOUDY    76  64  65 E9G17     29.94S
MONROE         CLOUDY    73  64  75 E13       29.95S
MT. CLEMENS    MOCLDY    71  65  81 CALM      29.95R
PONTIAC        CLOUDY    77  64  64 SE5       29.96R
PORT HOPE        N/A     64  61  90 SE8       29.95R
PORT HURON     PTCLDY    68  63  83 CALM      29.97R
TRI CITIES     CLOUDY    76  67  73 SE5       29.94R
MIDLAND        FAIR      70  69  96 CALM      29.92S
TROY           CLOUDY    80  63  55 SE5       29.98R
SAGINAW HB     CLOUDY    77  61  57 S6        29.93S
$$
MIZ043>046-050>051-056>058-064>065-071>073-077>080-280300-
SOUTHWEST LOWER MICHIGAN

CITY           SKY/WX    TMP DP  RH WIND       PRES   REMARKS
BATTLE CREEK   CLOUDY    77  63  61 SE5       29.93R
BENTON HARBOR  CLOUDY    70  67  90 SE6       29.88S
BIG RAPIDS     LGT RAIN  71  70  97 W3        29.92R
COLDWATER      CLEAR     73  62  70 SE3       29.93S
FREMONT        CLOUDY    69  69 100 SE6       29.91S
HOLLAND        CLOUDY    70  65  84 SE7       29.90F
GRAND RAPIDS   CLOUDY    77  65  66 W12       29.92R
IONIA          MOCLDY    75  63  66 SE6       29.91R
KALAMAZOO      CLOUDY    79  58  48 S3        29.91R
LUDINGTON      CLOUDY    71  69  92 SE5       29.88R
MARSHALL       MOCLDY    75  63  66 CALM      29.93R
MOUNT PLEASANT CLOUDY    70  69  97 E3        29.92S
MUSKEGON       CLOUDY    71  66  84 SE7       29.89S
SOUTH HAVEN    CLOUDY    70  67  89 CALM      29.89S
$$
MIZ016>042-280300-
NORTHERN LOWER MICHIGAN

CITY           SKY/WX    TMP DP  RH WIND       PRES   REMARKS
ALPENA         CLOUDY    62  58  86 SE6       29.97R
BEAVER ISLAND  CLOUDY    63  62  97 SE7       29.90S
BELLAIRE       CLOUDY    67  64  93 CALM      29.92R
CADILLAC       LGT RAIN  69  66  91 SE5       29.93S
CHARLEVOIX     CLOUDY    66  66 100 SE6       29.93S
FRANKFORT      DRIZZLE   69  67  93 CALM      29.88S
GAYLORD        CLOUDY    68  63  84 E5        29.96R
GRAYLING       CLOUDY    73  64  75 E5        29.95S
HARBOR SPRINGS CLOUDY    66  65  97 E6        29.92S
HOUGHTON LAKE  CLOUDY    71  65  81 SE5       29.95R
MANISTEE       CLOUDY    70  64  83 E6        29.88F
OSCODA         CLOUDY    63  58  86 SE5       29.96R
PELLSTON       CLOUDY    67  65  93 CALM      29.93S
ROGERS CITY    RAIN      69  60  73 CALM      29.97R
TRAVERSE CITY  LGT RAIN  67  65  93 CALM      29.89S
$$
MIZ007>008-015-280300-
EASTERN UPPER MICHIGAN

CITY           SKY/WX    TMP DP  RH WIND       PRES   REMARKS
KINROSS          N/A     66  59  77 E9        29.94F
MACKINAC ISLAN LGT RAIN  56  56 100 E9        29.93F
NEWBERRY       CLOUDY    64  59  85 SE6       29.91F
S. S. MARIE    CLOUDY    67  57  70 SE8       29.95R
MUNISING         N/A     66  60  81 SE7       29.87F
$$
MIZ004>006-011>014-085-280300-
CENTRAL UPPER MICHIGAN

CITY           SKY/WX    TMP DP  RH WIND       PRES   REMARKS
MANISTIQUE     CLOUDY    60  58  94 E3        29.88F
ESCANABA       CLOUDY    61  57  88 SE8       29.87S
MENOMINEE      LGT RAIN  58  58 100 SE8       29.87F FOG
SAWYER-GWINN   CLOUDY    63  61  94 SE7       29.88F
$$
MIZ001>003-009>011-084-280300-
WESTERN UPPER MICHIGAN

CITY           SKY/WX    TMP DP  RH WIND       PRES   REMARKS
IRON MOUNTAIN  LGT RAIN  64  63  96 SE7       29.84S FOG
HOUGHTON       FOG       54  52  93 E13       29.86S VSB 1/4
COPPER HARBOR    N/A     44  44 100 SE3       29.89R
IRONWOOD       CLOUDY    57  57 100 NE5       29.78F
$$

ABBREVIATIONS USED IN REMARKS
   TC - TEMPERATURE IN CELSIUS
  WCI - WIND CHILL INDEX
   HX - HEAT INDEX
  VSB - VISIBILITY





USA.gov is the U.S. government's official web portal to all federal, state and local government web resources and services.